Location: Ellerstadt
(49.4644°N, 8.2615°E)
Time: 03:59:41
(UTC+00:00)

Cosmos 1302 Rocket - Pass Details

Date: 03 March 2021
Orbit: 756 x 777 km, 74.0° (Epoch: 11 April)

Event Time Altitude Azimuth Distance (km) Brightness Sun altitude
Rises 18:08:36 0° 211° (SSW) 3,200 7.6 -9.8°
Reaches altitude 10° 18:10:58 10° 214° (SW) 2,280 6.9 -10.2°
Maximum altitude 18:16:07 65° 297° (WNW) 838 4.5 -11.0°
Drops below altitude 10° 18:21:18 10° 19° (NNE) 2,305 6.3 -11.9°
Sets 18:23:43 0° 22° (NNE) 3,238 7.1 -12.2°
